Location: Asheville, NC
(35.6000°N, 82.5500°W)
Time: 17:31:05
(UTC-04:00)

CUTE-I - Pass Details

Date: 12 January 2018
Orbit: 812 x 824 km, 98.7° (Epoch: 20 July)

Event Time Altitude Azimuth Distance (km) Brightness Sun altitude
Rises 06:45:22 0° 15° (NNE) 3,338 ? -11.1°
Reaches altitude 10° 06:47:44 10° 17° (NNE) 2,403 ? -10.6°
Maximum altitude 06:53:03 75° 103° (ESE) 842 ? -9.6°
Drops below altitude 10° 06:58:20 10° 188° (S) 2,393 ? -8.6°
Sets 07:00:40 0° 190° (S) 3,323 ? -8.1°
